�������C�����ː����j�^�v���󋵏��
Date,Time,Cs137(Bq/L),Cs134(Bq/L),�S��(Bq/L)
2019/04/25,00:00,0.29,ND,12
2019/04/25,00:10,0.30,ND,13
2019/04/25,00:20,0.29,ND,12
2019/04/25,00:30,0.29,ND,12
2019/04/25,00:40,0.29,ND,13
2019/04/25,00:50,0.30,ND,13
2019/04/25,01:00,0.30,ND,13
2019/04/25,01:10,0.31,ND,14
2019/04/25,01:20,0.33,ND,16
2019/04/25,01:30,0.32,ND,19
2019/04/25,01:40,0.33,ND,17
2019/04/25,01:50,0.32,ND,16
2019/04/25,02:00,0.32,ND,15
2019/04/25,02:10,0.32,ND,14
2019/04/25,02:20,0.32,ND,14
2019/04/25,02:30,0.34,ND,10
2019/04/25,02:40,0.35,ND,12
2019/04/25,02:50,0.35,ND,15
2019/04/25,03:00,0.35,ND,15
2019/04/25,03:10,0.35,ND,14
2019/04/25,03:20,0.35,ND,16
2019/04/25,03:30,0.33,ND,19
2019/04/25,03:40,0.33,ND,22
2019/04/25,03:50,0.32,ND,18
2019/04/25,04:00,0.32,ND,20
2019/04/25,04:10,0.33,ND,21
2019/04/25,04:20,0.31,ND,17
2019/04/25,04:30,0.31,ND,15
2019/04/25,04:40,0.29,ND,12
2019/04/25,04:50,0.30,ND,11
2019/04/25,05:00,0.29,ND,9.9
2019/04/25,05:10,0.29,ND,ND
2019/04/25,05:20,0.32,ND,9.9
2019/04/25,05:30,0.33,ND,9.9
2019/04/25,05:40,0.35,ND,10
2019/04/25,05:50,0.36,ND,11
2019/04/25,06:00,0.34,ND,13
2019/04/25,06:10,0.33,ND,15
2019/04/25,06:20,0.32,ND,14
2019/04/25,06:30,0.32,ND,14
2019/04/25,06:40,0.31,ND,15
2019/04/25,06:50,0.32,ND,15
2019/04/25,07:00,0.32,ND,13
2019/04/25,07:10,0.32,ND,13
2019/04/25,07:20,0.31,ND,13
2019/04/25,07:30,0.33,ND,14
2019/04/25,07:40,0.32,ND,12
2019/04/25,07:50,0.32,ND,15
2019/04/25,08:00,0.31,ND,15
2019/04/25,08:10,0.33,ND,14
2019/04/25,08:20,0.33,ND,9.9
2019/04/25,08:30,0.31,ND,11
2019/04/25,08:40,0.31,ND,11
2019/04/25,08:50,0.31,ND,10
2019/04/25,09:00,0.34,ND,11
2019/04/25,09:10,0.32,ND,12
2019/04/25,09:20,0.34,ND,16
2019/04/25,09:30,0.35,ND,15
2019/04/25,09:40,0.36,ND,13
2019/04/25,09:50,0.34,ND,13
2019/04/25,10:00,0.33,ND,13
2019/04/25,10:10,0.35,ND,13
2019/04/25,10:20,0.34,ND,13
2019/04/25,10:30,0.32,ND,13
2019/04/25,10:40,0.33,ND,16
2019/04/25,10:50,0.33,ND,15
2019/04/25,11:00,0.33,ND,16
2019/04/25,11:10,0.32,ND,14
2019/04/25,11:20,0.32,ND,15
2019/04/25,11:30,0.34,ND,15
2019/04/25,11:40,0.33,ND,13
2019/04/25,11:50,0.37,ND,14
2019/04/25,12:00,0.41,ND,12
2019/04/25,12:10,0.45,ND,12
2019/04/25,12:20,0.47,ND,11
2019/04/25,12:30,0.49,ND,12
2019/04/25,12:40,0.50,ND,14
2019/04/25,12:50,0.48,ND,14
2019/04/25,13:00,0.46,ND,17
2019/04/25,13:10,0.44,ND,18
2019/04/25,13:20,0.45,ND,18
2019/04/25,13:30,0.45,ND,19
2019/04/25,13:40,0.46,ND,18
2019/04/25,13:50,0.46,ND,18
2019/04/25,14:00,0.46,ND,16
2019/04/25,14:10,0.48,ND,15
2019/04/25,14:20,0.46,ND,15
2019/04/25,14:30,0.46,ND,14
2019/04/25,14:40,0.45,ND,16
2019/04/25,14:50,0.44,ND,15
2019/04/25,15:00,0.46,ND,14
2019/04/25,15:10,0.42,ND,14
2019/04/25,15:20,0.43,ND,15
2019/04/25,15:30,0.43,ND,13
2019/04/25,15:40,0.43,ND,10
2019/04/25,15:50,0.43,ND,12
2019/04/25,16:00,0.42,ND,12
2019/04/25,16:10,0.45,ND,13
2019/04/25,16:20,0.44,ND,13
2019/04/25,16:30,0.42,ND,14
2019/04/25,16:40,0.40,ND,18
2019/04/25,16:50,0.41,ND,17
2019/04/25,17:00,0.40,ND,19
2019/04/25,17:10,0.38,ND,18
2019/04/25,17:20,0.37,ND,16
2019/04/25,17:30,0.37,ND,18
2019/04/25,17:40,0.38,ND,17
2019/04/25,17:50,0.34,ND,18
2019/04/25,18:00,0.35,ND,17
2019/04/25,18:10,0.35,ND,19
2019/04/25,18:20,0.36,ND,19
2019/04/25,18:30,0.35,ND,17
2019/04/25,18:40,0.35,ND,14
2019/04/25,18:50,0.36,ND,14
2019/04/25,19:00,0.35,ND,14
2019/04/25,19:10,0.35,ND,13
2019/04/25,19:20,0.35,ND,15
2019/04/25,19:30,0.35,ND,15
2019/04/25,19:40,0.36,ND,17
2019/04/25,19:50,0.36,ND,16
2019/04/25,20:00,0.37,ND,17
2019/04/25,20:10,0.35,ND,17
2019/04/25,20:20,0.36,ND,16
2019/04/25,20:30,0.38,ND,15
2019/04/25,20:40,0.37,ND,16
2019/04/25,20:50,0.37,ND,17
2019/04/25,21:00,0.38,ND,16
2019/04/25,21:10,0.40,ND,14
2019/04/25,21:20,0.40,ND,12
2019/04/25,21:30,0.39,ND,12
2019/04/25,21:40,0.38,ND,12
2019/04/25,21:50,0.37,ND,12
2019/04/25,22:00,0.36,ND,13
2019/04/25,22:10,0.38,ND,14
2019/04/25,22:20,0.39,ND,17
2019/04/25,22:30,0.39,ND,19
2019/04/25,22:40,0.39,ND,18
2019/04/25,22:50,0.40,ND,18
2019/04/25,23:00,0.41,ND,15
2019/04/25,23:10,0.39,ND,14
2019/04/25,23:20,0.36,ND,14
2019/04/25,23:30,0.36,ND,12
2019/04/25,23:40,0.35,ND,13
2019/04/25,23:50,0.35,ND,10
